Regional Weather Roundup
Issued by NWS

Home | Current Version | Previous Version | Graphics & Text | Print | Product List | Glossary On
Versions: 1 2 3 4 5 6 7 8 9 10 11 12 13 14 15 16 17 18 19 20 21 22 23 24 25 26 27 28 29 30 31 32 33 34 35 36 37 38 39 40 41
000
ASUS45 KCYS 261610
RWRWY

WYOMING REGIONAL WEATHER ROUNDUP
NATIONAL WEATHER SERVICE CHEYENNE WY
900 AM MST FRI DEC 26 2014

NOTE:  "FAIR" INDICATES FEW OR NO CLOUDS BELOW 12,000 FEET
WITH NO SIGNIFICANT WEATHER AND/OR OBSTRUCTIONS TO VISIBILITY.

WYZ001-261700-
YELLOWSTONE NATIONAL PARK

CITY           SKY/WX    TMP DP  RH WIND       PRES   REMARKS
LK YELLOWSTONE   N/A     -9 -14  78 CALM      29.90R
W YELLOWSTONE  NOT AVBL

$$
WYZ002>013-054>058-071-098>099-261700-
NORTHERN WYOMING

CITY           SKY/WX    TMP DP  RH WIND       PRES   REMARKS
JACKSON        NOT AVBL
CODY           CLOUDY    16  16 100 SW3       29.98S
GREYBULL       FAIR      12  11  95 SE3       30.06R
WORLAND        CLOUDY    12   9  87 CALM      30.04R
SHERIDAN       FAIR       8   4  83 S3        30.04R
BUFFALO        FAIR      10   6  84 SW7       30.00S WCI  -1
GILLETTE       CLOUDY    17  12  80 CALM      30.03S
HULETT           N/A    N/A N/A N/A MISG        N/A
NEWCASTLE      CLOUDY    19  14  79 CALM      30.03S

$$
WYZ014>020-022>026-101>103-261700-
CENTRAL WYOMING

CITY           SKY/WX    TMP DP  RH WIND       PRES   REMARKS
BIG PINEY      CLOUDY     7   4  87 CALM      29.87R
PINEDALE       SNOW       5   5 100 CALM      29.87R VSB 1/2
DUBOIS         NOT AVBL
LANDER         CLOUDY    15  11  83 CALM      29.95R FOG
RIVERTON       LGT SNOW  14  10  84 CALM      29.97R FOG
CASPER         FLURRIES  13   9  84 NE5       29.97R WCI   5
DOUGLAS        LGT SNOW  13  10  88 NW3       30.00R FOG

$$
WYZ021-027>030-104>119-261700-
SOUTHERN WYOMING

CITY           SKY/WX    TMP DP  RH WIND       PRES   REMARKS
EVANSTON       MOCLDY    13  10  88 N3        29.85S
FORT BRIDGER   CLOUDY    14  12  94 CALM      29.88S FOG
ROCK SPRINGS   LGT SNOW  13   9  84 NE15G21   29.86R FOG     WCI  -3
DIXON          SNOW      17  14  88 W5        29.81R VSB 1/2 WCI  10
RAWLINS        LGT SNOW  10   6  84 NE14      29.85R FOG     WCI  -6
SARATOGA       LGT SNOW  10   9  92 NW5       29.81R WCI   2
LARAMIE        CLOUDY     8   5  87 CALM      29.83R FOG
CHEYENNE       LGT SNOW  12   8  84 N7        29.91R FOG     WCI   1
TORRINGTON     LGT SNOW  17  14  88 CALM      30.02R FOG
PINE BLUFFS    LGT SNOW  16  12  86 NE7       29.98R WCI   6

$$


USA.gov is the U.S. government's official web portal to all federal, state and local government web resources and services.